TimeCDT,TemperatureF,Dew PointF,Humidity,Sea Level PressureIn,VisibilityMPH,Wind Direction,Wind SpeedMPH,Gust SpeedMPH,PrecipitationIn,Events,Conditions,WindDirDegrees,DateUTC
12:35 AM,75.2,66.2,73,29.79,10.0,South,16.1,32.2,N/A,,Scattered Clouds,170,2013-04-18 05:35:00
12:55 AM,75.2,66.2,73,29.78,10.0,South,19.6,28.8,N/A,,Mostly Cloudy,170,2013-04-18 05:55:00
1:15 AM,75.2,66.2,73,29.78,10.0,South,20.7,31.1,N/A,,Mostly Cloudy,170,2013-04-18 06:15:00
1:35 AM,75.2,66.2,73,29.77,10.0,South,23.0,34.5,N/A,,Mostly Cloudy,170,2013-04-18 06:35:00
1:55 AM,75.2,66.2,73,29.76,10.0,South,24.2,34.5,N/A,,Mostly Cloudy,180,2013-04-18 06:55:00
2:15 AM,75.2,66.2,73,29.75,10.0,South,20.7,33.4,N/A,,Mostly Cloudy,170,2013-04-18 07:15:00
2:35 AM,75.2,66.2,73,29.75,10.0,South,18.4,29.9,N/A,,Mostly Cloudy,170,2013-04-18 07:35:00
2:55 AM,73.4,66.2,78,29.73,10.0,South,21.9,32.2,N/A,,Mostly Cloudy,170,2013-04-18 07:55:00
3:15 AM,73.4,66.2,78,29.72,10.0,South,21.9,28.8,N/A,,Overcast,170,2013-04-18 08:15:00
3:35 AM,73.4,66.2,78,29.73,10.0,South,20.7,29.9,N/A,,Mostly Cloudy,180,2013-04-18 08:35:00
3:55 AM,75.2,66.2,73,29.73,10.0,South,21.9,28.8,N/A,,Mostly Cloudy,180,2013-04-18 08:55:00
4:35 AM,73.4,66.2,78,29.74,10.0,South,16.1,28.8,N/A,,Overcast,180,2013-04-18 09:35:00
4:55 AM,73.4,66.2,78,29.74,10.0,South,16.1,29.9,N/A,,Overcast,170,2013-04-18 09:55:00
5:15 AM,73.4,66.2,78,29.73,10.0,South,24.2,29.9,N/A,,Overcast,170,2013-04-18 10:15:00
5:35 AM,73.4,66.2,78,29.72,10.0,South,20.7,31.1,N/A,,Overcast,170,2013-04-18 10:35:00
5:55 AM,73.4,66.2,78,29.72,10.0,South,25.3,36.8,N/A,,Overcast,170,2013-04-18 10:55:00
6:15 AM,73.4,66.2,78,29.71,10.0,South,26.5,36.8,N/A,,Mostly Cloudy,170,2013-04-18 11:15:00
6:35 AM,73.4,64.4,73,29.71,10.0,South,26.5,32.2,N/A,,Scattered Clouds,180,2013-04-18 11:35:00
6:55 AM,73.4,64.4,73,29.71,10.0,South,27.6,36.8,N/A,,Partly Cloudy,170,2013-04-18 11:55:00
7:15 AM,73.4,64.4,73,29.71,10.0,South,24.2,35.7,N/A,,Clear,180,2013-04-18 12:15:00
7:35 AM,73.4,64.4,73,29.71,8.0,South,27.6,40.3,N/A,,Partly Cloudy,180,2013-04-18 12:35:00
7:55 AM,73.4,64.4,73,29.71,8.0,South,25.3,38.0,N/A,,Partly Cloudy,170,2013-04-18 12:55:00
8:35 AM,73.4,64.4,73,29.71,8.0,South,31.1,36.8,N/A,,Mostly Cloudy,180,2013-04-18 13:35:00
8:55 AM,75.2,64.4,69,29.70,8.0,South,29.9,41.4,N/A,,Scattered Clouds,170,2013-04-18 13:55:00
9:15 AM,75.2,64.4,69,29.69,6.0,South,31.1,42.6,N/A,,Haze,180,2013-04-18 14:15:00
9:35 AM,75.2,64.4,69,29.69,4.0,South,31.1,43.7,N/A,,Haze,180,2013-04-18 14:35:00
9:55 AM,75.2,64.4,69,29.70,7.0,South,29.9,38.0,N/A,,Clear,190,2013-04-18 14:55:00
10:15 AM,75.2,64.4,69,29.70,8.0,South,35.7,49.5,N/A,,Clear,190,2013-04-18 15:15:00
10:55 AM,77.0,64.4,65,29.70,7.0,South,34.5,42.6,N/A,,Clear,190,2013-04-18 15:55:00
11:15 AM,77.0,64.4,65,29.71,8.0,South,35.7,43.7,N/A,,Clear,190,2013-04-18 16:15:00
11:35 AM,75.2,64.4,69,29.70,10.0,South,29.9,40.3,N/A,,Clear,190,2013-04-18 16:35:00
11:55 AM,77.0,66.2,69,29.69,8.0,South,31.1,43.7,N/A,Thunderstorm,Clear,190,2013-04-18 16:55:00
12:15 PM,77.0,64.4,65,29.68,9.0,South,36.8,44.9,N/A,,Partly Cloudy,190,2013-04-18 17:15:00
12:35 PM,77.0,64.4,65,29.68,9.0,South,31.1,43.7,N/A,,Partly Cloudy,190,2013-04-18 17:35:00
12:55 PM,77.0,64.4,65,29.67,9.0,South,33.4,44.9,N/A,,Partly Cloudy,180,2013-04-18 17:55:00
1:15 PM,77.0,64.4,65,29.67,10.0,South,26.5,41.4,N/A,Thunderstorm,Partly Cloudy,190,2013-04-18 18:15:00
1:35 PM,77.0,64.4,65,29.67,9.0,South,28.8,38.0,N/A,Thunderstorm,Partly Cloudy,190,2013-04-18 18:35:00
1:55 PM,69.8,64.4,83,29.70,1.0,West,24.2,31.1,N/A,Thunderstorm,Haze,260,2013-04-18 18:55:00
2:35 PM,64.4,64.4,100,29.68,0.2,SSW,11.5,-,N/A,Fog-Thunderstorm,Fog,200,2013-04-18 19:35:00
2:55 PM,64.4,64.4,100,29.67,0.8,SSW,12.7,-,0.04,Thunderstorm,Mist,200,2013-04-18 19:55:00
3:35 PM,64.4,64.4,100,29.67,1.2,South,15.0,-,0.09,Rain-Thunderstorm,Rain,170,2013-04-18 20:35:00
3:55 PM,64.4,64.4,100,29.67,2.5,SSW,16.1,-,0.10,Rain-Thunderstorm,Light Rain,210,2013-04-18 20:55:00
4:15 PM,64.4,64.4,100,29.68,1.5,WSW,13.8,-,N/A,,Scattered Clouds,240,2013-04-18 21:15:00
4:35 PM,59.0,57.2,94,29.72,1.2,WNW,27.6,40.3,N/A,Thunderstorm,Clear,290,2013-04-18 21:35:00
4:55 PM,55.4,55.4,100,29.70,1.0,WNW,19.6,26.5,0.06,Rain,Rain,300,2013-04-18 21:55:00
5:15 PM,53.6,51.8,94,29.72,1.5,WNW,25.3,31.1,0.03,Rain,Rain,290,2013-04-18 22:15:00
5:35 PM,51.8,50.0,94,29.72,1.0,WNW,21.9,33.4,0.05,Rain,Rain,300,2013-04-18 22:35:00
5:55 PM,50.0,48.2,94,29.72,2.5,NW,18.4,29.9,0.08,Rain,Light Rain,310,2013-04-18 22:55:00
6:15 PM,50.0,48.2,94,29.74,2.5,WNW,21.9,27.6,0.03,Rain,Light Rain,300,2013-04-18 23:15:00
6:35 PM,50.0,46.4,87,29.76,3.0,WNW,20.7,24.2,0.05,Rain,Light Rain,300,2013-04-18 23:35:00
6:55 PM,48.2,46.4,93,29.77,2.0,WNW,17.3,23.0,0.08,Rain,Rain,300,2013-04-18 23:55:00
7:15 PM,48.2,46.4,93,29.77,4.0,NW,19.6,25.3,0.01,Rain,Light Rain,310,2013-04-19 00:15:00
7:35 PM,48.2,44.6,87,29.78,4.0,WNW,18.4,29.9,0.05,Rain,Rain,300,2013-04-19 00:35:00
7:55 PM,46.4,44.6,93,29.77,5.0,WNW,20.7,28.8,0.07,Rain,Light Rain,300,2013-04-19 00:55:00
8:15 PM,48.2,42.8,82,29.80,10.0,NW,16.1,27.6,N/A,,Overcast,310,2013-04-19 01:15:00
9:55 PM,46.4,37.4,71,29.84,10.0,WNW,18.4,25.3,N/A,,Overcast,300,2013-04-19 02:55:00
10:15 PM,46.4,39.2,76,29.84,10.0,WNW,13.8,24.2,N/A,,Overcast,300,2013-04-19 03:15:00
10:35 PM,46.4,35.6,66,29.85,10.0,NW,20.7,32.2,N/A,,Overcast,310,2013-04-19 03:35:00
10:55 PM,46.4,35.6,66,29.85,10.0,NW,18.4,27.6,N/A,,Overcast,310,2013-04-19 03:55:00
11:15 PM,44.6,35.6,71,29.86,10.0,NW,17.3,23.0,N/A,,Overcast,310,2013-04-19 04:15:00
11:35 PM,44.6,37.4,76,29.86,10.0,WNW,16.1,-,N/A,,Overcast,300,2013-04-19 04:35:00
11:55 PM,44.6,35.6,71,29.87,10.0,WNW,19.6,27.6,N/A,,Overcast,300,2013-04-19 04:55:00